Airfield :
LOGIN :

Register | Disclaimer

   EN    FR    IT 

 










Legend :    VFR   Marginal VFR   IFR   Intensive IFR   Very Intensive IFR
Visi :
Ceiling :
>= 8 km
>= 3000ft
5 to 8 km
1000 to 3000 ft
1500m to 5 km
500 to 1000 ft
800 to 1500m
200 to 500 ft
< 800m
< 200 ft
Symbols :   Thunderstorms  Fog  Heavy snow  Heavy precipitations  Wind > 20 kt
SIGMETs :     Misc.  Thunderstorms  Icing  Turbulence  Mountain Waves  Volcanic Ashes






- Airport Elevation : 2302 ft


LEAB - Albacete

CURRENT METAR :
  • 261730Z 25005KT 220V280 9999 BKN037 13/10 Q1025 NOSIG

EXPIRED METARs :
  • 261630Z 27009KT 9999 FEW027 BKN044 14/11 Q1024 NOSIG
  • 261600Z 28009KT 9999 FEW024 OVC041 14/10 Q1024 NOSIG
  • 261530Z 28007KT 9999 SCT024 OVC036 14/10 Q1024 NOSIG
  • 261500Z 29009KT 9999 SCT024 OVC040 14/10 Q1024 NOSIG

TAF TAF LEAB
Valid from the 26 at 18:00 until the 27 at 18:00 UTC


261700Z 2618/2718 28010KT 9999 BKN025 BKN035 TX16/2715Z TN07/2706Z
TEMPO 2618/2711 2500 BR BCFG BKN005
PROB30
TEMPO 2703/2709 0150 FG VV001
PROB30
TEMPO 2618/2709 DZ



MET'MAP, your aeronautical weather chart ! - Copyright ORBIFLY December 2007 - Disclaimer

ORBIFLY MET'MAP TEAM :

Programming & Development : Alexandra Zaïnal
Concept & original design : Baudouin d'Aumeries
Assistance for programming : Marc-Olivier Méhu
Technical & hardware support : Manuel Goepfert

Contact : metmap@orbifly.com




SOURCES & CREDITS :

   NOAA